When you browse on this site, cookies collect data to enhance your experience and personalize the content and advertising you see.
Visit our Privacy Policy to learn more. By continuing to use the site, you agree to this use of cookies and data.
  • In Latvia
  • List of Countries
  • For 7 days
  • Water Temperature
  • Weather Map
  • Weather Widgets
  • user-avatar
    Login

    Hourly Weather Cincinnati

    Today, 18 October, Friday

    Time Temperature Precipitation Wind Pressure Humidity
    00:00 +7°C° 0 mm 1 mps 745 mmHg 83%
    01:00 +6°C° 0 mm 1 mps 745 mmHg 84%
    02:00 +5°C° 0 mm 0 mps 745 mmHg 85%
    03:00 +5°C° 0 mm 0 mps 746 mmHg 85%
    04:00 +5°C° 0 mm 0 mps 746 mmHg 86%
    05:00 +4°C° 0 mm 0 mps 746 mmHg 86%
    06:00 +4°C° 0 mm 0 mps 747 mmHg 86%
    07:00 +8°C° 0 mm 1 mps 747 mmHg 77%
    08:00 +10°C° 0 mm 1 mps 747 mmHg 68%
    09:00 +12°C° 0 mm 1 mps 747 mmHg 59%
    10:00 +14°C° 0 mm 1 mps 747 mmHg 53%
    11:00 +15°C° 0 mm 1 mps 746 mmHg 48%
    12:00 +18°C° 0 mm 1 mps 746 mmHg 42%
    13:00 +18°C° 0 mm 1 mps 745 mmHg 42%
    14:00 +18°C° 0 mm 1 mps 745 mmHg 42%
    15:00 +18°C° 0 mm 1 mps 744 mmHg 42%
    16:00 +15°C° 0 mm 1 mps 744 mmHg 49%
    17:00 +13°C° 0 mm 1 mps 744 mmHg 56%
    18:00 +12°C° 0 mm 2 mps 744 mmHg 63%
    19:00 +10°C° 0 mm 2 mps 744 mmHg 66%
    20:00 +9°C° 0 mm 2 mps 744 mmHg 69%
    21:00 +10°C° 0 mm 1 mps 744 mmHg 72%
    22:00 +8°C° 0 mm 2 mps 744 mmHg 73%
    23:00 +8°C° 0 mm 2 mps 744 mmHg 75%

    Tomorrow, 19 October, Saturday

    Time Temperature Precipitation Wind Pressure Humidity
    00:00 +7°C° 0 mm 2 mps 744 mmHg 77%
    01:00 +7°C° 0 mm 2 mps 744 mmHg 78%
    02:00 +7°C° 0 mm 2 mps 744 mmHg 78%
    03:00 +6°C° 0 mm 2 mps 743 mmHg 79%
    04:00 +6°C° 0 mm 2 mps 743 mmHg 79%
    05:00 +6°C° 0 mm 2 mps 743 mmHg 78%
    06:00 +6°C° 0 mm 2 mps 743 mmHg 78%
    07:00 +8°C° 0 mm 2 mps 743 mmHg 70%
    08:00 +10°C° 0 mm 2 mps 743 mmHg 63%
    09:00 +14°C° 0 mm 2 mps 743 mmHg 55%
    10:00 +16°C° 0 mm 2 mps 742 mmHg 50%
    11:00 +18°C° 0 mm 2 mps 742 mmHg 46%
    12:00 +21°C° 0 mm 1 mps 741 mmHg 41%
    13:00 +21°C° 0 mm 1 mps 741 mmHg 41%
    14:00 +22°C° 0 mm 1 mps 740 mmHg 41%
    15:00 +22°C° 0 mm 1 mps 740 mmHg 41%
    16:00 +20°C° 0 mm 1 mps 740 mmHg 49%
    17:00 +18°C° 0 mm 1 mps 740 mmHg 57%
    18:00 +14°C° 0 mm 1 mps 740 mmHg 66%
    19:00 +14°C° 0 mm 1 mps 740 mmHg 69%
    20:00 +13°C° 0 mm 1 mps 740 mmHg 73%
    21:00 +13°C° 0 mm 1 mps 740 mmHg 77%
    22:00 +12°C° 0 mm 1 mps 740 mmHg 78%
    23:00 +12°C° 0 mm 1 mps 740 mmHg 80%

    Day after tomorrow, 20 October, Sunday

    Time Temperature Precipitation Wind Pressure Humidity
    00:00 +11°C° 0 mm 0 mps 740 mmHg 81%
    01:00 +10°C° 0 mm 0 mps 740 mmHg 82%
    02:00 +11°C° 0 mm 1 mps 740 mmHg 82%
    03:00 +11°C° 0 mm 1 mps 741 mmHg 83%
    04:00 +11°C° 0 mm 1 mps 741 mmHg 84%
    05:00 +10°C° 0 mm 1 mps 741 mmHg 84%
    06:00 +10°C° 0 mm 1 mps 741 mmHg 85%
    07:00 +12°C° 0 mm 1 mps 742 mmHg 76%
    08:00 +15°C° 0 mm 1 mps 742 mmHg 68%
    09:00 +17°C° 0 mm 2 mps 743 mmHg 60%
    10:00 +18°C° 0 mm 2 mps 743 mmHg 56%
    11:00 +20°C° 0 mm 2 mps 742 mmHg 53%
    12:00 +23°C° 0 mm 2 mps 742 mmHg 50%
    13:00 +23°C° 0 mm 2 mps 742 mmHg 52%
    14:00 +23°C° 0 mm 2 mps 742 mmHg 55%
    15:00 +23°C° 0 mm 2 mps 742 mmHg 57%
    16:00 +20°C° 0 mm 2 mps 742 mmHg 65%
    17:00 +19°C° 0 mm 2 mps 742 mmHg 73%
    18:00 +17°C° 0 mm 2 mps 742 mmHg 82%
    19:00 +17°C° 0 mm 2 mps 742 mmHg 84%
    20:00 +16°C° 0 mm 2 mps 742 mmHg 86%
    21:00 +15°C° 0 mm 2 mps 742 mmHg 89%
    22:00 +15°C° 0 mm 2 mps 742 mmHg 89%
    23:00 +15°C° 0 mm 2 mps 742 mmHg 89%

    21 October, Monday

    Time Temperature Precipitation Wind Pressure Humidity
    00:00 +14°C° 0 mm 2 mps 742 mmHg 89%
    01:00 +15°C° 0 mm 2 mps 741 mmHg 88%
    02:00 +14°C° 0 mm 3 mps 741 mmHg 88%
    03:00 +14°C° 0 mm 3 mps 741 mmHg 88%
    04:00 +14°C° 0 mm 3 mps 741 mmHg 87%
    05:00 +14°C° 0 mm 3 mps 741 mmHg 86%
    06:00 +15°C° 0 mm 4 mps 740 mmHg 86%
    07:00 +15°C° 1.5 mm 4 mps 740 mmHg 88%
    08:00 +17°C° 1.5 mm 4 mps 740 mmHg 90%
    09:00 +18°C° 1.5 mm 4 mps 740 mmHg 92%
    10:00 +17°C° 4.2 mm 5 mps 740 mmHg 92%
    11:00 +17°C° 4.2 mm 5 mps 739 mmHg 92%
    12:00 +17°C° 4.2 mm 5 mps 739 mmHg 92%
    13:00 +17°C° 5.3 mm 5 mps 738 mmHg 93%
    14:00 +18°C° 5.3 mm 4 mps 738 mmHg 94%
    15:00 +18°C° 5.3 mm 4 mps 737 mmHg 95%
    16:00 +18°C° 0.6 mm 4 mps 737 mmHg 93%
    17:00 +17°C° 0.6 mm 4 mps 737 mmHg 91%
    18:00 +16°C° 0.6 mm 5 mps 737 mmHg 90%
    19:00 +16°C° 0.5 mm 5 mps 737 mmHg 90%
    20:00 +15°C° 0.5 mm 5 mps 738 mmHg 90%
    21:00 +15°C° 0.5 mm 5 mps 738 mmHg 90%
    22:00 +14°C° 0.2 mm 4 mps 738 mmHg 86%
    23:00 +13°C° 0.2 mm 4 mps 738 mmHg 82%

    22 October, Tuesday

    Time Temperature Precipitation Wind Pressure Humidity
    00:00 +12°C° 0.2 mm 3 mps 738 mmHg 78%
    01:00 +11°C° 0 mm 3 mps 739 mmHg 80%
    02:00 +10°C° 0 mm 3 mps 739 mmHg 81%
    03:00 +9°C° 0 mm 3 mps 739 mmHg 83%
    04:00 +8°C° 0 mm 4 mps 740 mmHg 83%
    05:00 +7°C° 0 mm 4 mps 740 mmHg 84%
    06:00 +7°C° 0 mm 4 mps 740 mmHg 84%
    07:00 +8°C° 0 mm 5 mps 740 mmHg 78%
    08:00 +9°C° 0 mm 5 mps 741 mmHg 71%
    09:00 +10°C° 0 mm 6 mps 741 mmHg 65%
    10:00 +11°C° 0 mm 6 mps 741 mmHg 59%
    11:00 +11°C° 0 mm 6 mps 741 mmHg 53%
    12:00 +13°C° 0 mm 6 mps 741 mmHg 47%
    13:00 +13°C° 0 mm 6 mps 741 mmHg 47%
    14:00 +13°C° 0 mm 6 mps 741 mmHg 46%
    15:00 +13°C° 0 mm 6 mps 741 mmHg 45%
    16:00 +12°C° 0 mm 5 mps 742 mmHg 48%
    17:00 +11°C° 0 mm 4 mps 742 mmHg 50%
    18:00 +8°C° 0 mm 4 mps 743 mmHg 53%
    19:00 +8°C° 0 mm 4 mps 743 mmHg 54%
    20:00 +7°C° 0 mm 4 mps 743 mmHg 54%
    21:00 +8°C° 0 mm 3 mps 744 mmHg 55%
    22:00 +7°C° 0 mm 3 mps 744 mmHg 58%
    23:00 +7°C° 0 mm 3 mps 744 mmHg 60%

    23 October, Wednesday

    Time Temperature Precipitation Wind Pressure Humidity
    00:00 +5°C° 0 mm 3 mps 744 mmHg 62%
    01:00 +5°C° 0 mm 3 mps 745 mmHg 64%
    02:00 +5°C° 0 mm 3 mps 745 mmHg 65%
    03:00 +5°C° 0 mm 2 mps 745 mmHg 67%
    04:00 +5°C° 0 mm 2 mps 745 mmHg 68%
    05:00 +5°C° 0 mm 2 mps 746 mmHg 68%
    06:00 +4°C° 0 mm 2 mps 746 mmHg 69%
    07:00 +7°C° 0 mm 3 mps 746 mmHg 63%
    08:00 +9°C° 0 mm 3 mps 746 mmHg 57%
    09:00 +11°C° 0 mm 3 mps 746 mmHg 51%
    10:00 +13°C° 0 mm 3 mps 746 mmHg 48%
    11:00 +15°C° 0 mm 4 mps 746 mmHg 46%
    12:00 +17°C° 0 mm 4 mps 746 mmHg 43%
    13:00 +18°C° 0 mm 4 mps 745 mmHg 45%
    14:00 +18°C° 0 mm 4 mps 745 mmHg 47%
    15:00 +18°C° 0 mm 4 mps 744 mmHg 49%
    16:00 +15°C° 0 mm 4 mps 744 mmHg 56%
    17:00 +14°C° 0 mm 4 mps 744 mmHg 63%
    18:00 +12°C° 0 mm 4 mps 744 mmHg 69%
    19:00 +12°C° 0 mm 4 mps 744 mmHg 70%
    20:00 +12°C° 0 mm 4 mps 744 mmHg 71%
    21:00 +12°C° 0 mm 4 mps 744 mmHg 72%
    22:00 +12°C° 0 mm 4 mps 744 mmHg 72%
    23:00 +12°C° 0 mm 4 mps 744 mmHg 73%
    Show more